This is the latest recevied weather packets stored in our database for station/object M0TUM-1. If no packets are shown the sender has not sent any weather packets the latest 1 day(s).
| Time | Temp. | Humidity | Pressure | Rain* | Wind** | Luminosity | Snow |
|---|---|---|---|---|---|---|---|
| 1836274663 | 15° C | 95% | 1011.9 hPa | 0 mm | 0.89 m/s, 232° | 0 W/m² | - |
| 1836274515 | 15° C | 95% | 1011.7 hPa | 0 mm | 1.34 m/s, 251° | 0 W/m² | - |
| 1836274360 | 15° C | 95% | 1011.7 hPa | 0 mm | 0.45 m/s, 229° | 0 W/m² | - |
| 1836274214 | 15° C | 95% | 1011.9 hPa | 0 mm | 0.45 m/s, 199° | 0 W/m² | - |
| 1836274059 | 15° C | 95% | 1011.8 hPa | 0 mm | 0.89 m/s, 238° | 0 W/m² | - |
| 1778051021 | 8.89° C | 88% | 1011.7 hPa | 0 mm | 1.34 m/s, 3° | 108 W/m² | - |
| 1778050718 | 8.89° C | 88% | 1011.8 hPa | 0 mm | 1.79 m/s, 103° | 68 W/m² | - |
| 1778050416 | 8.89° C | 89% | 1011.9 hPa | 0 mm | 0 m/s | 134 W/m² | - |
| 1778050112 | 8.89° C | 89% | 1011.8 hPa | 0 mm | 0.89 m/s, 324° | 92 W/m² | - |
| 1778049807 | 8.89° C | 89% | 1011.8 hPa | 0 mm | 0 m/s | 101 W/m² | - |
| 1778049505 | 8.33° C | 88% | 1011.8 hPa | 0 mm | 1.34 m/s, 274° | 119 W/m² | - |
| 1778049202 | 8.33° C | 89% | 1011.8 hPa | 0 mm | 0 m/s | 68 W/m² | - |
| 1778048901 | 8.33° C | 88% | 1011.5 hPa | 0 mm | 0.45 m/s, 244° | 29 W/m² | - |
| 1778048598 | 8.33° C | 88% | 1011.6 hPa | 0 mm | 0.45 m/s, 289° | 23 W/m² | - |
| 1778048294 | 8.33° C | 88% | 1011.8 hPa | 1.27 mm | 0.89 m/s, 3° | 34 W/m² | - |
| 1778047990 | 8.33° C | 88% | 1011.5 hPa | 1.27 mm | 0.45 m/s, 252° | 36 W/m² | - |
| 1778047689 | 7.78° C | 88% | 1011.6 hPa | 0 mm | 0.45 m/s, 238° | 29 W/m² | - |
| 1778047387 | 7.78° C | 88% | 1011.6 hPa | 0 mm | 1.34 m/s, 275° | 19 W/m² | - |
| 1778047083 | 7.78° C | 88% | 1011.6 hPa | 0 mm | 0 m/s | 26 W/m² | - |
| 1778046780 | 7.78° C | 89% | 1011.5 hPa | 0 mm | 0.45 m/s, 287° | 23 W/m² | - |
| 1778046477 | 7.78° C | 89% | 1011.6 hPa | 0 mm | 0.89 m/s, 236° | 21 W/m² | - |
| 1778046174 | 7.78° C | 89% | 1011.5 hPa | 0 mm | 0.89 m/s, 296° | 15 W/m² | - |
| 1778045870 | 7.78° C | 89% | 1011.6 hPa | 0 mm | 0.89 m/s, 247° | 25 W/m² | - |
| 1778045569 | 7.78° C | 89% | 1011.6 hPa | 0 mm | 0.45 m/s, 252° | 23 W/m² | - |
| 1778045266 | 7.78° C | 89% | 1011.6 hPa | 0 mm | 0.45 m/s, 289° | 17 W/m² | - |
* Rain latest hour (hover to see other rain measurements)
** Current wind speed in m/s (hover to see current wind gust speed)